Leesburg, FL

7:47 PM EDT on April 26, 2018 (GMT -0400)
Leesburg Regional

Weather History for KLEE - November, 2010

Change the Weather History Date:

Saturday, November 27, 2010

  Actual Average Record
Temperature  
Mean Temperature 62 °F -  
Max Temperature 69 °F 76 °F 84 °F (1973)
Min Temperature 54 °F 55 °F 36 °F (1962)
Degree Days  
Heating Degree Days 4    
Growing Degree Days 12 (Base 50)    
Moisture  
Dew Point 57 °F    
Average Humidity 77    
Maximum Humidity 96    
Minimum Humidity 39    
Precipitation  
Precipitation 0.05 in - - ()
Sea Level Pressure  
Sea Level Pressure 30.01 in    
Wind  
Wind Speed 8 mph (NNW)    
Max Wind Speed 12 mph    
Max Gust Speed 18 mph    
Visibility 9 miles    
Events Rain    
Averages and records for this station are not official NWS values.
T = Trace of Precipitation, MM = Missing Value Source: NWS Daily Summary

Daily Weather History Graph

Daily Weather History Graph

Search for Another Location

Airport or City:

Astronomy

Nov. 27, 2010 Rise Set
Actual Time 6:59 AM EST 5:29 PM EST
Civil Twilight 6:34 AM EST 5:55 PM EST
Nautical Twilight 6:05 AM EST 6:24 PM EST
Astronomical Twilight 5:36 AM EST 6:52 PM EST
Moon 11:32 PM EST (11/27) 11:50 AM EST (11/27)
Length of Visible Light 11h 20m
Length of Day
10h 29m
Waning Gibbous, 63% of the Moon is Illuminated
Nov 27
Waning Gibbous
Nov 28
Last Quarter
Dec 5
New
Dec 13
First Quarter
Dec 21
Full

Hourly Weather History & Observations

Time (EST) Temp. Dew Point Humidity Pressure Visibility Wind Dir Wind Speed Gust Speed Precip Events Conditions
12:10 AM 68.0 °F 66.2 °F 94% 29.98 in 3.0 mi WSW 11.5 mph - N/A   Overcast
12:53 AM 68.0 °F 66.9 °F 96% 29.96 in 5.0 mi SW 8.1 mph - N/A   Overcast
1:53 AM 69.1 °F 66.9 °F 93% 29.95 in 8.0 mi SW 8.1 mph - N/A   Overcast
2:53 AM 69.1 °F 66.9 °F 93% 29.94 in 6.0 mi SW 8.1 mph - N/A   Overcast
3:40 AM 69.8 °F 66.2 °F 88% 29.94 in 7.0 mi SSW 8.1 mph - N/A   Overcast
3:53 AM 69.1 °F 66.9 °F 93% 29.93 in 7.0 mi SSW 9.2 mph - N/A   Overcast
4:00 AM 69.8 °F 66.2 °F 88% 29.93 in 7.0 mi SSW 5.8 mph - N/A   Overcast
4:53 AM 69.1 °F 68.0 °F 96% 29.95 in 5.0 mi WSW 5.8 mph - 0.02 in Rain Light Rain
5:02 AM 69.8 °F 66.2 °F 88% 29.95 in 8.0 mi WSW 6.9 mph - 0.00 in   Overcast
5:13 AM 69.8 °F 68.0 °F 94% 29.96 in 8.0 mi WSW 5.8 mph - 0.00 in   Overcast
5:53 AM 66.0 °F 64.0 °F 93% 29.98 in 5.0 mi NNW 9.2 mph 17.3 mph 0.03 in Rain Rain
6:07 AM 66.2 °F 62.6 °F 88% 29.98 in 9.0 mi North 10.4 mph 18.4 mph 0.00 in Rain Light Rain
6:38 AM 64.4 °F 60.8 °F 88% 30.00 in 10.0 mi North 10.4 mph - 0.00 in   Overcast
6:51 AM 64.4 °F 60.8 °F 88% 30.00 in 10.0 mi North 10.4 mph - 0.00 in   Overcast
6:53 AM 64.0 °F 61.0 °F 90% 30.00 in 10.0 mi North 9.2 mph - 0.00 in   Overcast
7:01 AM 64.4 °F 60.8 °F 88% 30.00 in 10.0 mi North 10.4 mph - N/A   Overcast
7:32 AM 62.6 °F 60.8 °F 94% 30.03 in 10.0 mi North 11.5 mph - N/A   Overcast
7:53 AM 63.0 °F 60.1 °F 90% 30.03 in 10.0 mi North 10.4 mph - N/A   Overcast
8:20 AM 62.6 °F 59.0 °F 88% 30.04 in 10.0 mi North 9.2 mph - N/A   Overcast
8:53 AM 63.0 °F 55.0 °F 75% 30.04 in 10.0 mi North 9.2 mph - N/A   Overcast
9:53 AM 64.0 °F 55.9 °F 75% 30.06 in 10.0 mi North 10.4 mph - N/A   Overcast
11:53 AM 66.9 °F 54.0 °F 63% 30.05 in 10.0 mi NNW 8.1 mph - N/A   Overcast
12:53 PM 66.9 °F 54.0 °F 63% 30.03 in 10.0 mi NNW 6.9 mph - N/A   Overcast
1:53 PM 69.1 °F 52.0 °F 54% 30.03 in 10.0 mi Variable 3.5 mph - N/A   Scattered Clouds
2:53 PM 68.0 °F 43.0 °F 40% 30.02 in 10.0 mi NE 5.8 mph - N/A   Clear
3:53 PM 69.1 °F 43.0 °F 39% 30.03 in 10.0 mi Variable 3.5 mph - N/A   Clear
4:53 PM 66.0 °F 43.0 °F 43% 30.03 in 10.0 mi ENE 3.5 mph - N/A   Clear
5:53 PM 61.0 °F 52.0 °F 72% 30.05 in 10.0 mi Calm Calm - N/A   Clear
6:53 PM 60.1 °F 46.9 °F 62% 30.07 in 10.0 mi Calm Calm - N/A   Clear
7:53 PM 57.9 °F 48.9 °F 72% 30.09 in 10.0 mi Calm Calm - N/A   Clear
8:53 PM 57.9 °F 44.1 °F 60% 30.09 in 10.0 mi North 8.1 mph - N/A   Clear
9:53 PM 55.9 °F 45.0 °F 67% 30.11 in 10.0 mi NNW 4.6 mph - N/A   Clear
10:53 PM 54.0 °F 41.0 °F 62% 30.12 in 10.0 mi North 9.2 mph - N/A   Clear
11:53 PM 54.0 °F 37.0 °F 53% 30.13 in 10.0 mi North 5.8 mph - N/A   Mostly Cloudy